Time,TemperatureF,DewpointF,PressureIn,WindDirection,WindDirectionDegrees,WindSpeedMPH,WindSpeedGustMPH,Humidity,HourlyPrecipIn,Conditions,Clouds,dailyrainin,SoftwareType,DateUTC
2013-02-26 00:30:00,31.0,26.0,-100.00,SW,218,2.0,2.0,83,-99.99,,,-99.99,,2013-02-26 07:30:00,
2013-02-26 01:11:00,31.0,26.0,-100.00,SW,218,2.0,2.0,83,-99.99,,,-99.99,,2013-02-26 08:11:00,
2013-02-26 01:21:00,31.0,26.0,-100.00,SW,218,2.0,2.0,83,-99.99,,,-99.99,,2013-02-26 08:21:00,
2013-02-26 01:30:00,31.0,27.0,-100.00,SW,229,2.0,2.0,84,-99.99,,,-99.99,,2013-02-26 08:30:00,
2013-02-26 02:11:00,31.0,27.0,-100.00,SW,229,2.0,2.0,84,-99.99,,,-99.99,,2013-02-26 09:11:00,
2013-02-26 02:21:00,31.0,27.0,-100.00,SW,229,2.0,2.0,84,-99.99,,,-99.99,,2013-02-26 09:21:00,
2013-02-26 02:30:00,32.0,26.0,-100.00,South,191,0.0,2.0,79,-99.99,,,-99.99,,2013-02-26 09:30:00,
2013-02-26 03:11:00,32.0,26.0,-100.00,South,191,0.0,2.0,79,-99.99,,,-99.99,,2013-02-26 10:11:00,
2013-02-26 03:21:00,32.0,26.0,-100.00,South,191,0.0,2.0,79,-99.99,,,-99.99,,2013-02-26 10:21:00,
2013-02-26 04:30:00,31.0,24.0,-100.00,SW,223,2.0,2.0,75,-99.99,,,-99.99,,2013-02-26 11:30:00,
2013-02-26 05:11:00,31.0,24.0,-100.00,SW,223,2.0,2.0,75,-99.99,,,-99.99,,2013-02-26 12:11:00,
2013-02-26 05:22:00,31.0,24.0,-100.00,SW,223,2.0,2.0,75,-99.99,,,-99.99,,2013-02-26 12:22:00,
2013-02-26 06:30:00,32.0,23.0,-100.00,SSW,194,2.0,2.0,70,-99.99,,,-99.99,,2013-02-26 13:30:00,
2013-02-26 07:11:00,32.0,23.0,-100.00,SSW,194,2.0,2.0,70,-99.99,,,-99.99,,2013-02-26 14:11:00,
2013-02-26 07:21:00,32.0,23.0,-100.00,SSW,194,2.0,2.0,70,-99.99,,,-99.99,,2013-02-26 14:21:00,
2013-02-26 07:30:00,32.0,22.0,-100.00,WSW,248,2.0,2.0,65,-99.99,,,-99.99,,2013-02-26 14:30:00,
2013-02-26 08:11:00,32.0,22.0,-100.00,WSW,248,2.0,2.0,65,-99.99,,,-99.99,,2013-02-26 15:11:00,
2013-02-26 08:21:00,32.0,22.0,-100.00,WSW,248,2.0,2.0,65,-99.99,,,-99.99,,2013-02-26 15:21:00,
2013-02-26 08:30:00,32.0,23.0,-100.00,South,181,2.0,2.0,68,-99.99,,,-99.99,,2013-02-26 15:30:00,
2013-02-26 09:11:00,32.0,23.0,-100.00,South,181,2.0,2.0,68,-99.99,,,-99.99,,2013-02-26 16:11:00,
2013-02-26 09:22:00,32.0,23.0,-100.00,South,181,2.0,2.0,68,-99.99,,,-99.99,,2013-02-26 16:22:00,
2013-02-26 10:30:00,34.0,22.0,-100.00,North,349,0.0,0.0,62,-99.99,,,-99.99,,2013-02-26 17:30:00,
2013-02-26 11:12:00,34.0,22.0,-100.00,North,349,0.0,0.0,62,-99.99,,,-99.99,,2013-02-26 18:12:00,
2013-02-26 11:21:00,34.0,22.0,-100.00,North,349,0.0,0.0,62,-99.99,,,-99.99,,2013-02-26 18:21:00,
2013-02-26 12:11:00,34.0,22.0,-100.00,South,172,0.0,2.0,61,-99.99,,,-99.99,,2013-02-26 19:11:00,
2013-02-26 12:30:00,32.0,28.0,-100.00,ESE,120,4.0,7.0,84,-99.99,,,-99.99,,2013-02-26 19:30:00,
2013-02-26 13:11:00,32.0,28.0,-100.00,ESE,120,4.0,7.0,84,-99.99,,,-99.99,,2013-02-26 20:11:00,
2013-02-26 13:21:00,32.0,28.0,-100.00,ESE,120,4.0,7.0,84,-99.99,,,-99.99,,2013-02-26 20:21:00,
2013-02-26 14:30:00,37.0,20.0,-100.00,West,266,2.0,2.0,49,-99.99,,,-99.99,,2013-02-26 21:30:00,
2013-02-26 15:11:00,37.0,20.0,-100.00,West,266,2.0,2.0,49,-99.99,,,-99.99,,2013-02-26 22:11:00,
2013-02-26 15:21:00,37.0,20.0,-100.00,West,266,2.0,2.0,49,-99.99,,,-99.99,,2013-02-26 22:21:00,
2013-02-26 16:30:00,35.0,20.0,-100.00,WSW,246,2.0,2.0,54,-99.99,,,-99.99,,2013-02-26 23:30:00,
2013-02-26 17:11:00,35.0,20.0,-100.00,WSW,246,2.0,2.0,54,-99.99,,,-99.99,,2013-02-27 00:11:00,
2013-02-26 17:21:00,35.0,20.0,-100.00,WSW,246,2.0,2.0,54,-99.99,,,-99.99,,2013-02-27 00:21:00,
2013-02-26 18:30:00,33.0,17.0,-100.00,WSW,254,2.0,2.0,51,-99.99,,,-99.99,,2013-02-27 01:30:00,
2013-02-26 19:13:00,33.0,17.0,-100.00,WSW,254,2.0,2.0,51,-99.99,,,-99.99,,2013-02-27 02:13:00,
2013-02-26 19:22:00,33.0,17.0,-100.00,WSW,254,2.0,2.0,51,-99.99,,,-99.99,,2013-02-27 02:22:00,
2013-02-26 19:30:00,33.0,17.0,-100.00,West,274,2.0,4.0,52,-99.99,,,-99.99,,2013-02-27 02:30:00,
2013-02-26 20:11:00,33.0,17.0,-100.00,West,274,2.0,4.0,52,-99.99,,,-99.99,,2013-02-27 03:11:00,
2013-02-26 20:21:00,33.0,17.0,-100.00,West,274,2.0,4.0,52,-99.99,,,-99.99,,2013-02-27 03:21:00,
2013-02-26 20:30:00,32.0,16.0,-100.00,West,271,4.0,4.0,52,-99.99,,,-99.99,,2013-02-27 03:30:00,
2013-02-26 21:11:00,32.0,16.0,-100.00,West,271,4.0,4.0,52,-99.99,,,-99.99,,2013-02-27 04:11:00,
2013-02-26 21:21:00,32.0,16.0,-100.00,West,271,4.0,4.0,52,-99.99,,,-99.99,,2013-02-27 04:21:00,
2013-02-26 22:30:00,33.0,16.0,-100.00,West,272,4.0,4.0,50,-99.99,,,-99.99,,2013-02-27 05:30:00,
2013-02-26 23:11:00,33.0,16.0,-100.00,West,272,4.0,4.0,50,-99.99,,,-99.99,,2013-02-27 06:11:00,
2013-02-26 23:21:00,33.0,16.0,-100.00,West,272,4.0,4.0,50,-99.99,,,-99.99,,2013-02-27 06:21:00,